Regional Weather Roundup
Issued by NWS

Home | Current Version | Previous Version | Graphics & Text | Print | Product List | Glossary On
Versions: 1 2 3 4 5 6 7 8 9 10 11 12 13 14 15 16 17 18 19 20 21 22 23 24 25 26 27 28 29 30 31 32 33 34 35 36 37 38 39 40 41 42 43 44 45 46 47 48 49 50
000
ASUS43 KLOT 270609
RWRIL

ILLINOIS REGIONAL WEATHER ROUNDUP
NATIONAL WEATHER SERVICE CHICAGO/ROMEOVILLE IL
100 AM CDT TUE SEP 27 2016

NOTE: "FAIR" INDICATES FEW OR NO CLOUDS BELOW 12,000 FEET WITH NO
SIGNIFICANT WEATHER AND/OR OBSTRUCTIONS TO VISIBILITY.

* THESE STATIONS ARE NOT UNDER NWS QUALITY CONTROL. THEY ALSO MAY NOT
  REPORT WEATHER SUCH AS PRECIPITATION OR FOG.

ILZ001-002-007-009-015-016-024-270700-
NORTHWEST ILLINOIS

CITY           SKY/WX    TMP DP  RH WIND       PRES   REMARKS
MOLINE         CLEAR     54  42  64 W7        29.95F
6HR MIN TEMP:  54; 6HR MAX TEMP:  62;

STERLING*      CLEAR     52  43  71 SW7       29.93F
SAVANNA*       CLEAR     57  42  56 W14       29.91F
$$

ILZ003-004-008-010-011-017-018-270700-
NORTH CENTRAL ILLINOIS

CITY           SKY/WX    TMP DP  RH WIND       PRES   REMARKS
ROCKFORD       CLEAR     53  40  61 SW7       29.91F
6HR MIN TEMP:  51; 6HR MAX TEMP:  62;

FREEPORT*      CLEAR     50  41  69 SW8       29.91F
ROCHELLE*      CLEAR     50  42  72 SW8       29.92F
DE KALB*       CLEAR     54  41  60 SW13      29.91F
$$

ILZ005-006-012>014-019>023-270700-
NORTHEAST ILLINOIS

CITY           SKY/WX    TMP DP  RH WIND       PRES   REMARKS
CHICAGO-OHARE  CLEAR     56  37  49 SW9       29.89F
6HR MIN TEMP:  56; 6HR MAX TEMP:  65;

CHICAGO-MIDWAY CLEAR     58  37  45 SW12      29.91F
6HR MIN TEMP:  58; 6HR MAX TEMP:  67;

AURORA         CLEAR     53  40  61 SW7       29.92F
6HR MIN TEMP:  52; 6HR MAX TEMP:  63;

LANSING*       CLEAR     52  41  66 SW6       29.92F
JOLIET*        CLEAR     57  41  55 W3        29.93F
WAUKEGAN       CLEAR     51  38  60 SW7       29.85F
6HR MIN TEMP:  51; 6HR MAX TEMP:  63;

DUPAGE AIRPORT CLEAR     52  39  61 SW10      29.90F
6HR MIN TEMP:  50; 6HR MAX TEMP:  63;

KANKAKEE*      CLEAR     49  41  73 SW6       29.95F
WHEELING       CLEAR     56  36  47 SW7       29.90F
6HR MIN TEMP:  56; 6HR MAX TEMP:  65;

MORRIS*        CLEAR     52  41  66 W3        29.93S
ROMEOVILLE*    CLEAR     54  43  66 SW8       29.92F
NORTHERLY ISL    N/A     59  36  42 SW3         N/A
$$

LMZ740>746-270700-
SOUTHERN LAKE MICHIGAN

STATION/POSITION SKY/WX   TEMP    WIND        PRES    VSBY  WAVE
                          AIR SEA DIR/SP/G                  HT/PER
                          (F)     (DEG/KT/KT) (MB)    (MI)  (FT/S)
SOUTHERN BUOY              65 70  250/ 21/ 25 1009.1F         4/ 5
WILMETTE HARBOR            60 62  260/ 12/ 16   N/A           1/ 2
HARRISON CRIB              65     250/ 19/ 23   N/A
BURNHAM HARBOR             59     200/  6/  9   N/A
CALUMET HARBOR             59     210/  6/  9 1012.8F
BURNS HARBOR               62     220/ 12/ 19 1013.9F
MICHIGAN CITY              59     190/ 14/ 15   N/A
MICHIGAN CITY 6N           64 67  250/ 17/ 23   N/A           5/ 4
ST. JOSEPH                 66 65  260/ 19/ 25 1011.7F         6/ 5
$$

ILZ025>027-034>036-040-047-049-050-058-095>099-270700-
WEST-CENTRAL ILLINOIS

CITY           SKY/WX    TMP DP  RH WIND       PRES   REMARKS
QUINCY         CLEAR     52  45  77 SW5       30.04S
GALESBURG*       N/A     55  44  64 MISG        N/A
MACOMB*        CLEAR     51  45  77 SW7       30.03S
JACKSONVILLE*  CLEAR     56  44  64 SW9       30.04S
PITTSFIELD*    PTCLDY    57  45  62 SW7       30.06S
$$

ILZ028>032-037-038-041>044-048-051>054-059>061-270700-
CENTRAL ILLINOIS

CITY           SKY/WX    TMP DP  RH WIND       PRES   REMARKS
PONTIAC        CLEAR     55  44  67 SW9       29.97F
BLOOMINGTON    CLEAR     54  42  64 SW9       30.00F
DECATUR        CLEAR     58  41  53 SW10      30.03F
PEORIA         CLEAR     54  44  69 SW6       29.99S
6HR MIN TEMP:  52; 6HR MAX TEMP:  66;

LACON*         CLEAR     58  41  53 SW6       29.96F
LINCOLN*       CLEAR     57  43  59 W5        30.01F
SPRINGFIELD    CLEAR     54  44  69 SW6       30.03F
6HR MIN TEMP:  53; 6HR MAX TEMP:  65;

TAYLORVILLE    CLEAR     52  42  70 SW5       30.05S
6HR MIN TEMP:  52; 6HR MAX TEMP:  64;

$$

ILZ033-039-045-046-055>057-062-063-270700-
EAST-CENTRAL ILLINOIS

CITY           SKY/WX    TMP DP  RH WIND       PRES   REMARKS
CHAMPAIGN      CLEAR     53  41  63 SW8       30.01F
RANTOUL*       CLEAR     53  43  68 SW7       30.00S
MATTOON        CLEAR     56  41  57 SW7       30.03F
PARIS*         CLEAR     51  43  74 CALM      30.04F
$$

ILZ079-100>102-270700-
SOUTHWEST ILLINOIS

CITY           SKY/WX    TMP DP  RH WIND       PRES   REMARKS
BELLEVILLE     CLEAR     52  49  90 SW1       30.07S
CAHOKIA*       CLEAR     52  46  80 CALM      30.08F
SPARTA*        CLEAR     55  48  77 SW5       30.10S
$$

ILZ064>066-069>071-074>076-080>082-084>086-088>090-092>094-270700-
SOUTH-CENTRAL ILLINOIS

CITY           SKY/WX    TMP DP  RH WIND       PRES   REMARKS
CARBONDALE     CLEAR     50  50 100 CALM      30.10S
6HR MIN TEMP:  49; 6HR MAX TEMP:  63;

CAIRO*         FOG       50  50 100 CALM      30.10F VSB 1
EFFINGHAM*     CLEAR     50  48  95 CALM      30.07S
MARION         CLEAR     55  54  94 CALM      30.10S
MT. VERNON     CLEAR     46  43  87 CALM      30.09S
CENTRALIA*     CLEAR     52  48  87 SW3       30.07F
SALEM*         CLEAR     52  46  80 SW3       30.08S
METROPOLIS*    CLEAR     52  51  97 CALM      30.10F
$$

ILZ067-068-072-073-078-083-087-091-270700-
SOUTHEAST ILLINOIS

CITY           SKY/WX    TMP DP  RH WIND       PRES   REMARKS
LAWRENCEVILLE  CLEAR     52  46  80 CALM      30.06F
FLORA*         CLEAR     50  47  89 W6        30.07S
FAIRFIELD*       N/A     51  50  97 CALM      30.07S
HARRISBURG*    CLEAR     52  52 100 CALM      30.09F
ROBINSON*      CLEAR     50  46  83 W3        30.06F
CARMI*         CLEAR     50  50 100 CALM      30.07F
$$

ABBREVIATIONS USED IN REMARKS
   TC - TEMPERATURE IN CELSIUS
  WCI - WIND CHILL INDEX
   HX - HEAT INDEX
  VSB - VISIBILITY
$$




USA.gov is the U.S. government's official web portal to all federal, state and local government web resources and services.